Theta_e
313 316 321 320 316 311 313 314 315 318 327 330 331 328 332 338 341 336 336 332 332 330 336 339 335 330 332 331 331 330 326 314 308 309 310 310 313 314 317 318 315 314 313 311 311 310 311 319 321
314 318 319 321 312 313 315 316 317 320 329 327 328 326 332 334 336 340 341 332 328 327 329 338 337 332 333 332 331 331 321 309 310 310 310 313 314 314 316 314 314 314 313 312 311 311 313 320 321
314 316 317 311 312 315 313 316 318 317 320 325 334 334 335 332 332 333 335 339 333 337 338 338 337 332 333 331 331 328 316 308 310 310 313 315 314 314 314 314 315 314 313 313 314 313 318 321 321
318 319 318 313 313 314 315 318 322 317 321 328 330 328 329 330 329 329 329 338 333 338 337 337 338 335 333 331 331 323 310 310 310 312 315 315 315 314 314 315 315 315 315 316 316 313 316 320 319
319 319 312 315 316 317 322 322 323 327 326 326 331 330 327 335 331 333 327 332 336 331 333 337 338 336 334 332 327 315 308 310 311 314 315 316 315 315 314 315 316 317 317 317 317 315 312 318 318
317 317 313 315 317 323 322 322 321 327 327 325 325 329 332 334 333 335 333 328 329 330 327 328 338 337 334 334 328 310 310 310 313 315 315 316 316 315 315 316 317 318 318 317 317 317 312 311 316
315 312 313 314 317 322 324 322 325 328 327 327 323 325 325 331 335 336 336 329 327 330 333 332 334 336 334 333 329 313 310 311 314 315 315 316 316 315 315 316 318 319 317 316 316 314 311 310 315
317 311 313 314 319 325 324 323 325 327 327 328 323 329 328 330 333 334 334 330 328 330 331 332 331 332 328 325 317 312 311 312 316 315 316 317 317 315 316 318 319 319 318 315 314 313 310 310 313
317 311 313 316 319 318 322 322 325 326 324 325 328 331 328 331 333 332 333 334 329 328 328 325 330 326 322 322 317 313 313 316 317 317 317 317 315 314 316 318 319 319 319 317 314 314 314 312 312
314 311 314 318 318 318 319 325 328 325 326 325 329 330 330 330 331 331 331 329 326 329 329 330 330 328 325 322 316 320 317 319 318 316 316 314 314 316 317 317 318 319 319 317 315 316 316 314 313
317 313 315 319 320 321 323 326 330 324 323 322 326 330 329 330 330 331 331 330 330 329 328 327 327 326 324 319 315 312 320 319 317 316 315 316 315 315 316 315 316 319 319 317 316 317 316 314 314
315 317 318 319 320 321 323 327 329 325 325 324 328 329 329 330 329 329 329 329 329 329 327 326 326 324 319 317 313 315 320 318 317 316 316 315 316 318 317 317 318 320 320 318 316 315 315 315 311
317 317 319 320 320 322 327 331 332 332 331 329 330 330 331 329 328 327 328 327 326 328 328 326 323 320 318 315 315 318 317 319 318 318 316 315 317 317 317 316 317 320 319 319 317 318 315 311 308
319 320 320 320 320 324 325 326 329 332 331 331 330 330 329 327 326 323 325 327 326 326 324 325 323 318 315 317 321 319 317 317 315 316 314 315 316 317 316 320 321 321 320 320 319 317 313 313 311
320 318 318 318 319 323 322 322 326 331 332 331 328 327 327 325 324 323 323 325 325 324 324 323 321 317 317 318 317 317 314 312 315 314 315 315 320 320 322 322 323 322 321 321 319 317 315 313 312
318 317 317 317 322 323 322 325 322 329 330 329 327 325 327 326 325 322 322 323 323 323 322 320 320 319 317 316 314 314 312 314 316 314 315 317 321 323 323 322 323 322 321 321 319 317 315 314 312
317 316 316 318 322 324 323 325 324 326 330 326 326 322 324 327 326 322 323 322 321 321 321 320 319 317 314 315 315 314 315 315 316 315 316 316 318 317 315 318 322 322 322 321 320 318 315 314 312
318 317 320 322 324 325 326 325 323 325 329 328 325 326 326 326 326 322 322 322 321 321 320 319 317 317 315 317 317 318 316 317 316 317 317 319 320 320 315 320 324 323 322 321 320 317 315 314 313
318 318 319 321 323 325 327 325 321 322 328 329 325 326 328 325 325 321 321 321 321 320 319 318 318 319 318 317 316 315 316 317 317 318 322 320 323 321 319 322 324 323 322 322 320 317 316 315 313
320 319 317 319 323 323 325 325 321 323 327 326 325 326 328 325 324 323 321 321 319 317 317 315 315 314 314 313 314 314 315 315 316 320 320 320 321 323 323 322 324 323 323 323 320 318 316 315 313
320 319 318 319 321 321 321 329 329 327 325 328 325 325 326 326 325 324 324 321 317 316 315 316 315 313 315 316 316 317 320 320 319 316 315 321 324 321 321 324 324 323 323 322 320 318 317 315 313
319 318 319 320 320 320 319 320 330 327 328 327 326 325 324 327 326 326 325 324 319 318 317 316 316 315 315 319 319 320 320 321 320 315 317 322 323 321 322 323 323 322 323 322 320 318 317 316 311
319 319 321 321 321 320 320 320 320 327 329 327 325 326 326 325 326 326 326 326 325 322 320 319 318 317 319 320 321 320 318 322 321 320 320 321 324 323 323 324 323 323 323 322 320 318 316 315 313
318 322 322 321 320 319 319 322 321 327 327 328 326 327 326 325 325 325 325 326 325 326 325 323 321 322 321 320 322 324 324 325 323 321 321 325 325 326 325 324 325 324 323 322 321 320 319 318 318
318 320 321 320 320 319 325 325 322 319 321 322 327 327 326 326 325 325 326 326 326 326 327 326 325 324 324 324 324 322 324 326 325 321 321 323 327 326 324 324 323 323 324 322 322 320 319 318 317
319 319 321 323 322 324 324 325 323 322 321 322 327 327 327 326 325 325 325 325 326 326 326 327 327 326 326 326 326 326 325 325 327 323 323 326 326 323 325 325 323 323 324 322 321 319 318 317 315
319 319 319 321 327 325 325 325 324 321 320 320 321 325 326 324 326 326 326 325 325 325 326 326 326 326 326 327 327 327 327 326 326 326 324 322 324 322 321 324 324 322 323 322 320 319 318 317 312
318 320 321 322 326 326 326 326 325 323 320 319 317 320 323 324 326 327 326 326 326 326 326 326 326 326 326 325 326 328 328 328 328 327 327 324 320 321 321 324 324 323 321 320 320 320 318 313 309
319 319 321 323 324 324 322 322 320 322 320 318 316 320 322 323 325 326 327 327 327 326 326 326 327 327 327 328 327 327 328 328 329 329 327 324 323 323 326 325 323 322 320 319 320 318 315 311 308
318 319 319 323 324 324 323 322 320 320 320 320 319 319 321 323 324 324 324 325 325 328 328 328 328 328 327 323 328 328 329 329 329 329 328 326 323 326 326 324 321 319 320 319 318 315 312 308 307
Wind_Speed
4 2 7 8 2 3 7 10 7 11 5 3 3 5 11 11 6 2 2 3 18 9 7 22 29 29 30 30 29 26 24 22 25 27 29 31 32 31 30 32 30 30 29 29 29 29 30 30 29
4 3 10 6 2 2 8 14 12 4 4 16 15 11 8 4 14 2 2 3 19 12 13 25 27 30 31 31 29 27 24 24 26 29 31 32 32 31 31 31 30 29 29 28 27 28 29 29 28
4 3 4 3 3 8 6 7 7 9 20 13 9 14 8 6 8 4 2 6 11 18 27 30 32 28 29 31 29 26 25 27 29 30 32 32 32 32 32 31 29 28 27 27 26 27 29 29 27
2 5 7 0 11 18 5 3 9 10 16 21 19 7 5 9 4 4 4 11 11 11 15 26 30 32 30 29 27 27 28 29 32 34 33 31 31 31 31 30 28 27 25 25 26 25 26 26 24
9 7 2 5 11 11 4 4 14 23 16 29 8 5 6 3 6 8 1 4 16 20 19 14 26 33 32 29 25 24 28 31 34 35 33 32 30 30 30 29 28 25 23 23 24 24 23 23 23
6 5 4 8 10 5 4 15 6 24 29 30 16 11 6 5 10 6 3 6 13 25 32 15 46 38 34 29 29 23 28 33 36 34 32 32 30 29 29 28 26 23 22 22 22 21 21 20 20
8 2 6 11 18 4 4 11 15 19 22 4 6 3 2 7 2 3 2 12 17 24 20 26 41 38 32 31 30 25 29 35 36 34 33 31 29 26 27 26 24 22 20 20 20 18 17 19 20
19 3 8 7 5 0 3 4 14 12 4 8 4 1 4 10 8 3 4 13 13 14 16 18 29 38 31 31 31 33 32 34 34 34 32 30 28 26 25 24 21 20 18 17 17 17 17 19 21
16 2 6 16 4 5 8 4 7 10 14 6 6 6 15 11 6 5 5 9 22 21 25 19 16 28 30 30 29 29 30 31 31 31 31 28 28 26 23 20 17 16 15 15 15 18 18 16 14
5 4 9 6 2 5 8 10 11 5 7 4 8 12 14 14 12 16 17 24 27 24 29 29 31 28 27 31 28 27 30 31 31 31 30 29 28 24 20 17 15 13 13 14 17 14 11 11 9
17 6 9 9 5 7 6 11 11 7 4 2 12 15 14 13 13 17 23 29 33 31 29 28 29 32 36 42 41 38 28 30 30 30 30 27 23 20 18 16 14 12 11 12 11 9 7 7 5
5 13 10 6 2 1 3 11 8 13 2 4 9 12 11 9 13 16 21 25 30 32 32 31 29 29 31 33 39 38 36 35 32 31 27 25 21 18 17 15 13 11 11 11 8 6 4 3 4
4 5 13 12 16 4 21 15 12 13 8 11 10 9 11 7 11 14 16 22 26 37 36 32 31 31 38 39 41 42 39 34 31 28 23 20 15 15 14 12 10 11 11 9 6 2 5 5 5
12 12 9 18 21 6 8 6 6 5 5 12 6 8 9 9 12 14 14 18 23 25 29 37 36 40 41 41 42 44 42 33 34 25 27 20 12 11 11 11 9 12 9 6 5 6 5 5 3
23 7 7 14 16 4 16 6 4 11 12 12 9 10 8 6 8 13 16 18 19 25 29 33 36 38 41 43 40 40 37 35 34 30 23 20 14 13 12 10 8 9 7 11 9 8 6 6 6
7 7 5 10 9 2 10 3 6 14 15 12 14 14 13 9 5 9 16 15 17 19 23 31 36 39 39 34 39 40 43 32 36 32 22 17 17 15 16 16 17 15 13 14 13 14 11 11 9
5 8 8 8 5 5 4 2 5 19 18 16 21 22 21 21 13 8 15 18 20 20 23 27 29 30 37 38 39 38 37 37 35 36 18 16 18 19 20 17 17 15 16 18 19 17 17 13 11
8 4 4 1 5 3 4 4 8 13 29 27 29 26 24 27 24 14 16 18 20 20 21 25 32 34 37 38 36 33 38 35 30 25 24 20 19 20 23 19 18 19 21 21 21 16 15 15 13
13 12 6 4 6 7 12 8 12 17 10 26 25 27 30 31 25 17 18 21 25 25 27 32 35 36 36 37 35 36 36 30 30 30 23 22 23 22 22 22 22 23 21 21 21 21 21 21 18
16 10 7 6 1 4 11 11 10 8 8 23 27 31 32 28 30 24 21 20 26 30 31 33 35 38 34 31 34 36 33 32 30 28 27 28 27 25 26 24 27 24 24 22 23 24 25 24 22
15 7 5 3 5 10 4 3 5 9 15 14 26 31 32 40 35 30 28 28 32 36 37 38 41 38 36 35 34 33 29 28 28 29 30 29 28 24 29 27 28 26 24 23 26 26 26 23 22
9 6 9 5 1 4 5 3 10 14 14 14 20 32 32 39 35 34 32 32 34 33 34 38 40 40 38 35 32 33 32 34 31 29 31 29 28 28 32 29 29 30 26 22 26 27 27 23 17
11 7 1 2 3 2 6 0 4 15 12 15 16 33 35 39 39 39 37 35 35 33 35 35 38 38 36 33 33 33 37 33 26 27 29 30 31 31 31 27 29 30 29 26 27 25 28 26 23
9 4 3 3 1 4 6 2 6 12 19 17 24 31 38 40 42 40 37 36 35 34 34 34 36 37 36 35 35 37 36 35 36 34 34 31 34 32 32 32 32 28 30 31 29 29 28 31 31
6 2 1 3 2 6 4 3 7 8 9 8 22 33 42 44 46 46 44 44 40 40 39 39 37 40 39 38 35 36 40 36 40 32 30 32 29 29 27 33 31 34 34 34 29 27 28 32 30
10 7 5 4 2 4 3 3 6 8 12 18 28 40 35 38 41 48 46 46 45 43 42 43 43 42 44 43 43 40 37 40 35 37 34 29 30 31 38 34 28 32 36 36 30 27 28 30 30
10 6 8 4 3 2 3 6 8 10 12 10 20 27 33 29 35 42 48 48 48 47 48 47 44 43 46 47 46 47 47 43 44 37 39 25 38 38 39 34 31 29 31 33 33 32 29 29 29
9 3 2 0 4 4 4 4 4 9 10 6 7 21 34 32 41 37 44 48 50 48 48 49 47 42 42 45 50 49 48 47 45 43 35 27 31 31 36 43 35 31 32 35 35 29 28 26 29
4 7 3 4 5 4 3 5 7 10 5 6 9 10 14 15 21 29 41 36 42 43 51 51 51 39 36 38 45 49 51 53 45 40 41 35 27 32 30 33 30 31 32 34 31 26 25 27 29
9 13 10 5 5 4 3 10 5 7 5 4 8 15 17 16 14 10 11 21 14 26 47 40 48 51 46 32 46 48 52 47 40 38 33 32 28 30 24 20 23 25 25 23 23 23 25 27 27
Wind_Direction
283 248 315 307 39 71 268 264 247 328 88 214 139 84 122 103 68 159 354 200 186 169 72 179 168 166 156 149 148 144 138 131 133 131 129 127 124 121 120 117 117 113 109 104 102 101 102 103 98
304 279 292 269 138 297 281 252 245 186 145 135 63 61 74 92 84 149 239 52 216 216 167 179 175 172 161 154 153 145 139 136 135 134 132 130 126 124 122 118 116 112 107 105 100 100 105 107 102
329 239 288 167 203 233 237 265 304 3 358 19 101 71 22 52 88 189 67 120 132 151 167 177 173 178 167 157 153 147 143 141 139 137 135 132 130 127 123 120 116 110 107 104 101 103 108 112 111
325 286 249 197 256 262 265 338 16 354 350 38 105 54 31 39 304 288 78 155 153 176 184 182 172 180 170 159 154 151 146 144 142 139 136 133 132 128 124 121 117 112 109 105 103 106 113 114 104
284 263 238 269 274 282 249 323 23 40 32 22 65 156 123 341 307 320 287 200 169 203 209 193 184 180 167 158 154 151 147 147 143 141 139 137 136 131 126 122 117 114 113 108 108 107 111 119 109
274 223 313 282 286 274 339 356 17 57 44 4 19 8 18 324 300 359 90 174 192 186 200 246 193 175 164 160 151 153 152 149 144 142 140 139 139 134 128 124 119 114 112 110 110 110 106 118 125
224 88 254 288 295 19 301 355 58 80 70 334 7 261 332 337 276 345 152 142 182 202 188 191 189 164 171 175 151 162 159 152 146 141 141 141 138 136 130 124 120 114 112 110 109 106 98 107 126
259 141 303 295 301 183 274 20 90 81 106 164 339 66 20 332 126 181 164 150 159 177 160 140 163 148 148 144 153 159 158 150 143 141 141 141 138 136 133 128 122 115 111 108 109 101 92 110 121
264 7 283 281 40 329 50 116 83 111 137 130 102 169 185 194 154 138 150 142 169 153 168 155 142 130 138 131 146 152 150 143 140 140 140 140 139 139 136 130 123 117 113 108 106 101 87 93 108
186 158 245 260 66 23 343 71 120 112 137 97 128 138 149 146 145 128 143 145 160 170 167 167 169 159 150 145 143 150 149 148 146 144 143 142 136 137 135 135 134 129 125 113 112 112 109 113 95
258 213 257 290 102 34 68 66 76 115 39 98 159 149 144 137 130 149 154 162 163 174 171 166 165 165 168 156 161 157 153 147 145 145 143 137 137 139 153 152 157 155 140 130 127 126 121 103 93
247 257 287 283 56 52 33 78 88 75 107 133 125 146 150 132 141 162 158 163 176 179 179 174 171 166 166 166 157 157 154 151 144 139 148 149 150 156 167 163 162 166 156 150 157 142 125 203 229
226 250 289 321 314 134 78 70 106 104 113 108 113 129 148 142 153 158 165 170 170 170 173 176 170 171 160 158 165 165 161 148 147 148 150 157 154 162 167 176 181 178 171 169 176 178 221 185 146
312 299 321 302 285 141 87 88 88 100 105 94 116 140 151 157 166 164 169 173 178 172 166 170 175 169 164 166 164 160 152 153 151 163 163 163 171 183 193 187 172 185 189 193 210 225 175 145 134
316 322 305 277 253 104 115 60 115 150 147 132 141 133 150 126 145 170 181 183 187 183 178 175 173 175 170 171 171 165 179 184 172 162 163 171 184 193 198 215 200 212 200 221 199 204 187 211 239
298 306 274 285 122 164 127 213 141 161 148 161 157 154 169 156 142 164 173 174 179 174 180 177 169 168 166 173 171 181 188 201 180 175 173 193 199 191 210 209 218 219 210 209 209 210 218 231 240
260 249 259 263 196 138 96 200 222 154 140 191 172 165 171 173 183 168 169 176 173 169 168 175 183 179 187 176 177 191 200 188 195 185 192 219 220 227 237 231 202 204 215 214 219 227 234 226 231
259 232 274 297 101 134 103 197 254 168 172 195 186 179 178 177 176 165 164 169 165 166 159 159 167 168 177 182 180 176 182 187 178 207 218 224 224 237 239 224 203 220 219 224 235 225 218 229 241
260 280 278 219 196 166 188 188 215 231 196 200 188 184 181 171 174 167 159 163 165 167 164 164 165 169 173 175 181 173 172 183 202 206 218 217 232 235 228 219 210 222 234 239 229 222 221 230 230
262 270 269 317 201 191 167 209 216 247 255 191 183 187 180 165 173 173 170 172 170 169 171 168 171 173 170 176 175 178 186 195 209 208 213 223 227 229 226 221 219 223 232 242 229 231 229 228 237
271 258 286 252 190 267 220 14 231 254 259 270 187 178 175 177 178 179 182 178 175 174 173 174 170 178 179 181 182 190 199 212 223 218 224 226 232 233 230 218 225 227 233 240 224 230 233 241 245
267 260 247 250 242 224 171 258 217 224 220 222 180 180 177 182 185 186 192 190 188 184 179 179 181 182 188 191 195 197 198 211 220 222 221 228 236 237 229 220 227 232 229 231 225 233 239 238 228
257 249 323 301 315 316 308 294 233 209 207 205 190 186 192 191 193 191 196 201 199 197 197 191 190 196 199 201 203 206 210 216 220 225 226 230 235 234 237 236 229 227 232 229 221 231 226 226 237
255 204 239 295 330 335 267 215 295 183 197 208 198 182 193 192 199 202 204 205 207 206 207 206 203 204 205 206 209 211 217 222 221 226 227 231 232 230 235 235 236 233 235 234 230 235 242 254 274
258 202 247 338 329 229 335 347 229 236 174 178 175 179 198 195 196 199 198 201 208 210 214 212 210 211 213 212 214 217 223 226 225 223 224 230 226 233 239 243 242 239 239 237 245 249 263 261 266
242 184 156 220 214 267 12 249 270 331 185 177 173 185 200 191 195 200 207 208 209 213 215 217 215 217 220 222 223 223 224 224 224 219 222 229 235 248 251 251 242 238 239 240 243 256 265 264 250
239 210 187 175 39 64 249 281 301 276 231 203 202 193 204 220 204 203 206 210 213 215 217 217 219 220 218 221 227 231 229 225 228 220 220 227 240 248 255 258 244 243 244 244 243 263 262 259 247
186 189 237 348 156 225 219 242 234 266 232 210 153 189 216 219 212 217 205 211 218 223 225 222 220 222 224 222 223 227 232 231 229 228 222 236 247 243 242 251 248 238 241 241 247 261 259 248 244
210 219 195 162 150 197 207 249 192 218 244 196 182 162 143 152 174 213 221 209 217 230 230 226 220 207 236 229 232 228 232 232 229 229 229 242 269 247 244 243 241 245 244 244 259 259 253 245 240
198 203 200 146 200 191 180 253 198 184 262 254 228 175 164 161 172 190 180 203 212 215 222 214 212 218 225 241 229 231 234 231 231 238 233 235 241 241 239 240 248 250 247 254 258 255 250 242 245